Weather History for Mercury, NV

Change the Weather History Date:

Friday, November 9, 2012

  Actual Average Record
Temperature  
Mean Temperature 47 °F -  
Max Temperature 59 °F 62 °F 78 °F (2014)
Min Temperature 35 °F 40 °F 30 °F (1998)
Degree Days  
Heating Degree Days 18    
Moisture  
Dew Point 28 °F    
Average Humidity 55    
Maximum Humidity 93    
Minimum Humidity 8    
Precipitation  
Precipitation 0.12 in - - ()
Sea Level Pressure  
Sea Level Pressure 29.65 in    
Wind  
Wind Speed 21 mph (SW)    
Max Wind Speed 28 mph    
Max Gust Speed 40 mph    
Visibility 10 miles    
Events Rain    
Averages and records for this station are not official NWS values.
T = Trace of Precipitation, MM = Missing Value Source: NWS Daily Summary

Daily Weather History Graph

Daily Weather History Graph

Search for Another Location

Airport:

Trip Planner

Search our weather history database for the weather conditions in past years. The results will help you decide how hot, cold, wet, or windy it might be!

Date:

Astronomy

Nov. 09, 2012 Rise Set
Actual Time 6:16 AM PST 4:39 PM PST
Civil Twilight 5:49 AM PST 5:06 PM PST
Nautical Twilight 5:18 AM PST 5:37 PM PST
Astronomical Twilight 4:47 AM PST 6:07 PM PST
Moon 1:27 AM PST (11/9) 1:48 PM PST (11/9)
Length of Visible Light 11h 17m
Length of Day
10h 22m
Waning Crescent, 22% of the Moon is Illuminated
Nov 9
Waning Crescent
Nov 13
New
Nov 20
First Quarter
Nov 28
Full
Dec 6
Last Quarter

Hourly Weather History & Observations

Time (PST) Temp. Windchill Dew Point Humidity Pressure Visibility Wind Dir Wind Speed Gust Speed Precip Events Conditions
12:52 AM 55.0 °F - 41.0 °F 59% 29.60 in 10.0 mi SSW 24.2 mph 34.5 mph N/A   Overcast
1:52 AM 54.0 °F - 39.9 °F 59% 29.57 in 10.0 mi SSW 25.3 mph 34.5 mph N/A   Clear
2:52 AM 54.0 °F - 39.0 °F 57% 29.56 in 10.0 mi SSW 20.7 mph 36.8 mph N/A   Clear
3:52 AM 53.1 °F - 37.9 °F 57% 29.56 in 10.0 mi SSW 26.5 mph 40.3 mph N/A   Clear
4:52 AM 52.0 °F - 37.9 °F 59% 29.56 in 10.0 mi SSW 24.2 mph 34.5 mph N/A   Partly Cloudy
5:52 AM 51.1 °F - 36.0 °F 56% 29.55 in 10.0 mi SSW 25.3 mph 35.7 mph N/A   Clear
6:52 AM 50.0 °F - 34.0 °F 54% 29.58 in 10.0 mi SSW 23.0 mph 32.2 mph N/A   Clear
7:52 AM 52.0 °F - 28.9 °F 41% 29.59 in 10.0 mi SSW 24.2 mph 35.7 mph N/A   Clear
8:52 AM 53.1 °F - 24.1 °F 32% 29.60 in 10.0 mi SSW 27.6 mph 34.5 mph N/A   Clear
9:52 AM 52.0 °F - 23.0 °F 32% 29.60 in 10.0 mi SSW 27.6 mph 40.3 mph N/A   Clear
10:52 AM 54.0 °F - 21.0 °F 28% 29.60 in 10.0 mi SSW 26.5 mph 36.8 mph N/A   Clear
11:52 AM 54.0 °F - 19.0 °F 25% 29.60 in 10.0 mi SSW 24.2 mph 35.7 mph N/A   Partly Cloudy
12:52 PM 55.0 °F - 18.0 °F 23% 29.59 in 10.0 mi WSW 20.7 mph 28.8 mph N/A   Scattered Clouds
1:52 PM 55.9 °F - 15.1 °F 20% 29.58 in 10.0 mi SSW 13.8 mph 25.3 mph N/A   Mostly Cloudy
2:52 PM 55.0 °F - 18.0 °F 23% 29.57 in 10.0 mi SW 11.5 mph 23.0 mph N/A   Overcast
3:52 PM 53.1 °F - 9.0 °F 17% 29.59 in 10.0 mi SSW 20.7 mph 31.1 mph N/A   Mostly Cloudy
4:52 PM 48.9 °F - 10.0 °F 21% 29.61 in 10.0 mi SSW 15.0 mph 25.3 mph N/A   Scattered Clouds
5:52 PM 46.9 °F - 18.0 °F 32% 29.65 in 10.0 mi SW 12.7 mph 26.5 mph N/A   Mostly Cloudy
6:24 PM 42.8 °F 33.8 °F 28.4 °F 57% 29.72 in 10.0 mi North 21.9 mph 31.1 mph N/A   Mostly Cloudy
6:52 PM 37.0 °F 27.4 °F 33.1 °F 86% 29.73 in 7.0 mi North 17.3 mph - 0.02 in Rain Rain
7:01 PM 37.4 °F 28.5 °F 33.8 °F 87% 29.77 in 6.0 mi North 15.0 mph - 0.02 in Rain Rain
7:35 PM 37.4 °F 28.9 °F 33.8 °F 87% 29.77 in 10.0 mi NE 13.8 mph - 0.04 in   Overcast
7:52 PM 36.0 °F 26.7 °F 34.0 °F 93% 29.74 in 10.0 mi NNE 15.0 mph - 0.05 in   Overcast
8:10 PM 35.6 °F 28.0 °F 33.8 °F 93% 29.79 in 8.0 mi NNE 10.4 mph - 0.01 in Rain Rain
8:52 PM 36.0 °F 28.5 °F 33.1 °F 89% 29.78 in 8.0 mi NNW 10.4 mph - 0.02 in Rain Light Rain
9:18 PM 35.6 °F 31.7 °F 33.8 °F 93% 29.81 in 9.0 mi East 4.6 mph - 0.02 in   Overcast
9:52 PM 36.0 °F 32.1 °F 34.0 °F 93% 29.76 in 10.0 mi SE 4.6 mph - 0.02 in   Overcast
10:52 PM 36.0 °F 30.3 °F 33.1 °F 89% 29.77 in 10.0 mi WNW 6.9 mph - N/A   Mostly Cloudy
11:52 PM 35.1 °F 32.2 °F 32.0 °F 89% 29.77 in 10.0 mi North 3.5 mph - N/A   Clear